CAPE
0 0 0 0 0 0 0 0 0 0 0 0 0 0 0 0 0 0 0 0 0 0 14 9 19 193 608 909 335 35 8 2 0 24 59 296 362 419 381 262 68 359 52 92 142
0 0 0 0 0 0 0 0 0 0 0 0 0 0 0 0 0 0 0 0 0 0 0 0 0 1 29 46 419 173 3 16 4 1 0 88 316 406 320 296 293 136 249 207 176
1 0 0 0 0 0 0 0 0 0 0 0 0 0 0 0 0 0 0 0 0 0 0 0 0 0 0 0 13 38 4 3 3 13 7 270 350 346 330 339 260 131 359 393 352
0 0 0 0 0 0 0 0 0 0 0 0 0 0 0 0 0 0 0 0 0 0 0 0 0 0 0 0 0 0 0 3 5 25 0 247 369 384 268 337 250 284 469 390 420
0 0 0 0 0 0 0 0 0 0 0 0 0 0 0 0 0 0 0 0 0 0 0 0 0 0 0 0 0 0 0 10 7 29 11 4 41 248 320 302 358 518 561 469 500
0 0 0 0 0 0 0 0 0 0 0 0 0 0 0 0 0 0 0 0 0 0 0 0 0 0 0 0 0 0 0 9 19 1 14 23 8 0 205 349 368 491 554 489 634
0 0 0 0 0 0 0 0 0 0 0 0 0 0 0 0 0 0 0 0 0 0 0 0 0 0 0 0 0 0 0 0 7 5 6 0 3 45 408 386 230 116 457 639 668
0 0 0 0 0 0 0 0 0 0 0 0 0 0 0 0 0 0 0 0 0 0 0 0 0 0 0 0 0 0 0 0 0 0 1 0 22 310 423 392 234 134 144 226 594
0 0 0 0 0 0 0 0 0 0 0 0 0 0 0 0 0 0 0 0 0 0 0 0 0 0 0 0 0 0 0 0 0 0 1 8 5 254 463 456 390 279 188 217 83
0 0 0 0 0 0 0 0 0 0 0 0 0 0 0 0 0 0 0 0 0 0 0 0 0 0 0 0 0 0 0 0 0 0 0 8 5 57 508 468 430 424 292 201 150
0 0 0 0 0 0 0 0 0 0 0 0 0 0 0 0 0 0 0 0 0 0 0 0 0 0 0 0 0 0 0 0 0 0 6 15 0 0 271 299 364 376 356 272 161
0 0 0 0 0 0 0 0 0 0 0 0 0 0 0 0 0 0 0 0 0 0 0 0 0 0 0 0 0 0 0 0 0 0 0 9 1 0 20 108 133 201 233 218 160
0 0 0 0 0 0 0 0 0 0 0 0 0 0 0 0 0 0 0 0 0 0 0 0 0 0 0 0 0 0 0 0 0 0 0 10 12 0 0 6 31 73 111 147 79
0 0 0 0 0 0 0 0 0 0 0 0 0 0 0 0 0 0 0 0 0 0 0 0 0 0 0 0 0 0 0 0 0 0 0 3 0 0 0 0 0 6 49 88 61
0 0 0 0 0 0 0 0 0 0 0 0 0 0 0 0 0 0 0 0 0 0 0 0 0 0 0 0 0 0 0 0 0 0 0 0 0 0 13 0 0 0 41 55 49
0 0 0 0 0 0 0 0 0 0 0 0 0 0 0 0 0 0 0 0 0 0 0 0 0 0 0 0 0 0 0 0 0 0 0 0 0 0 0 1 0 0 0 31 22
0 0 0 0 0 0 0 0 0 0 0 0 0 0 0 0 0 0 0 0 0 0 0 0 0 0 0 0 0 0 0 0 0 0 0 0 0 0 0 0 4 0 0 0 0
0 0 0 0 0 0 0 0 0 0 0 0 0 0 0 0 0 0 0 0 0 0 0 0 0 0 0 0 0 0 0 0 0 0 0 0 0 0 0 0 0 5 0 0 0
0 0 0 0 0 0 0 0 0 0 0 0 0 0 0 0 0 0 0 0 0 0 0 0 0 0 0 0 0 0 0 0 0 0 0 0 0 0 0 0 0 27 11 1 0
0 0 0 0 0 0 0 0 0 0 0 0 0 0 0 0 0 0 0 0 0 0 0 0 0 0 0 0 0 0 0 0 0 0 0 0 0 0 0 0 3 41 43 16 0
0 0 0 0 0 0 0 0 0 0 0 0 0 0 0 0 0 0 0 0 0 0 0 0 0 0 0 0 0 0 0 0 0 0 0 0 0 0 0 0 0 4 59 82 18
0 0 0 0 0 0 0 0 0 0 0 0 0 0 0 0 0 0 0 0 0 0 0 0 0 0 0 0 0 0 0 0 0 0 0 0 0 0 0 0 0 0 42 54 30
0 0 0 0 0 0 0 0 0 0 0 0 0 0 0 0 0 0 0 0 0 0 0 0 0 0 0 0 0 0 0 0 0 0 0 0 0 0 0 0 0 11 4 0 3
0 0 0 0 1 0 0 0 0 0 0 0 0 0 0 0 0 0 0 0 0 0 0 0 0 0 0 0 0 0 0 0 0 0 0 0 0 0 0 0 0 0 67 56 17
0 0 0 0 0 0 0 0 0 0 0 0 0 0 0 0 0 0 0 0 0 0 0 0 0 0 0 0 0 0 0 0 0 0 0 0 0 0 0 0 0 0 59 45 47
4 0 1 0 0 0 0 0 0 0 0 0 0 0 0 0 0 0 0 0 0 0 0 0 0 0 0 0 0 0 0 0 0 0 0 0 0 0 0 0 0 0 9 15 22
10 6 5 1 0 0 0 0 0 1 1 13 0 0 0 0 0 0 0 0 0 0 0 0 0 0 0 0 0 0 0 0 0 0 0 0 0 0 0 0 0 0 0 50 17
CIN
0 0 0 0 0 0 0 0 0 0 0 0 0 0 0 0 0 0 0 0 0 0 -283 -298 -410 -272 -142 -100 -198 -306 -169 -97 0 -58 -133 -70 -88 -75 -87 -160 -157 -127 -210 -234 -194
0 0 0 0 0 0 0 0 0 0 0 0 0 0 0 0 0 0 0 0 0 0 0 0 0 -101 -159 -119 -132 -147 -33 -30 -65 -34 -17 -87 -81 -130 -124 -142 -104 -152 -138 -146 -156
0 0 0 0 0 0 0 0 0 0 0 0 0 0 0 0 0 0 0 0 0 0 0 0 0 0 0 0 -111 -112 -25 -69 -60 -62 -62 -58 -85 -118 -134 -159 -184 -182 -153 -120 -116
0 0 0 0 0 0 0 0 0 0 0 0 0 0 0 0 0 0 0 0 0 0 0 0 0 0 0 0 0 0 0 -57 -79 -33 0 -57 -83 -127 -111 -103 -140 -154 -181 -167 -129
0 0 0 0 0 0 0 0 0 0 0 0 0 0 0 0 0 0 0 0 0 0 0 0 0 0 0 0 0 0 0 -40 -29 -20 -26 -18 -48 -71 -91 -135 -122 -126 -146 -151 -137
0 0 0 0 0 0 0 0 0 0 0 0 0 0 0 0 0 0 0 0 0 0 0 0 0 0 0 0 0 0 0 -48 -40 -11 -17 -25 -31 0 -94 -122 -123 -130 -138 -146 -119
0 0 0 0 0 0 0 0 0 0 0 0 0 0 0 0 0 0 0 0 0 0 0 0 0 0 0 0 0 0 0 0 -19 -34 -42 -2 -36 -91 -125 -132 -134 -134 -116 -103 -115
0 0 0 0 0 0 0 0 0 0 0 0 0 0 0 0 0 0 0 0 0 0 0 0 0 0 0 0 0 0 0 0 0 0 -17 0 -67 -127 -164 -154 -132 -125 -93 -125 -92
0 0 0 0 0 0 0 0 0 0 0 0 0 0 0 0 0 0 0 0 0 0 0 0 0 0 0 0 0 0 0 0 0 0 -22 -32 -102 -141 -136 -135 -138 -150 -107 -88 -110
0 0 0 0 0 0 0 0 0 0 0 0 0 0 0 0 0 0 0 0 0 0 0 0 0 0 0 0 0 0 0 0 0 0 0 -65 -36 -178 -156 -133 -140 -150 -154 -127 -129
0 0 0 0 0 0 0 0 0 0 0 0 0 0 0 0 0 0 0 0 0 0 0 0 0 0 0 0 0 0 0 0 0 0 -76 -46 -1 -1 -174 -158 -169 -183 -189 -158 -161
0 0 0 0 0 0 0 0 0 0 0 0 0 0 0 0 0 0 0 0 0 0 0 0 0 0 0 0 0 0 0 0 0 0 0 -55 -13 0 -196 -199 -178 -210 -238 -221 -184
0 0 0 0 0 0 0 0 0 0 0 0 0 0 0 0 0 0 0 0 0 0 0 0 0 0 0 0 0 0 0 0 0 0 0 -85 -92 0 0 -121 -208 -199 -227 -248 -242
0 0 0 0 0 0 0 0 0 0 0 0 0 0 0 0 0 0 0 0 0 0 0 0 0 0 0 0 0 0 0 0 0 0 0 -32 -6 0 0 0 0 -249 -239 -271 -276
0 0 0 0 0 0 0 0 0 0 0 0 0 0 0 0 0 0 0 0 0 0 0 0 0 0 0 0 0 0 0 0 0 0 0 0 0 0 -73 0 0 0 -241 -287 -338
0 0 0 0 0 0 0 0 0 0 0 0 0 0 0 0 0 0 0 0 0 0 0 0 0 0 0 0 0 0 0 0 0 0 0 0 0 0 0 -64 0 0 0 -304 -363
0 0 0 0 0 0 0 0 0 0 0 0 0 0 0 0 0 0 0 0 0 0 0 0 0 0 0 0 0 0 0 0 0 0 0 0 0 0 0 0 -97 0 0 0 0
0 0 0 0 0 0 0 0 0 0 0 0 0 0 0 0 0 0 0 0 0 0 0 0 0 0 0 0 0 0 0 0 0 0 0 0 0 0 0 0 -21 -128 0 0 0
0 0 0 0 0 0 0 0 0 0 0 0 0 0 0 0 0 0 0 0 0 0 0 0 0 0 0 0 0 0 0 0 0 0 0 0 0 0 0 0 0 -119 -144 -106 0
0 0 0 0 0 0 0 0 0 0 0 0 0 0 0 0 0 0 0 0 0 0 0 0 0 0 0 0 0 0 0 0 0 0 0 0 0 0 0 0 -109 -98 -112 -159 0
0 0 0 0 0 0 0 0 0 0 0 0 0 0 0 0 0 0 0 0 0 0 0 0 0 0 0 0 0 0 0 0 0 0 0 0 0 0 0 0 0 -38 -120 -142 -184
0 0 0 0 0 0 0 0 0 0 0 0 0 0 0 0 0 0 0 0 0 0 0 0 0 0 0 0 0 0 0 0 0 0 0 0 0 0 0 0 0 0 -128 -155 -155
0 0 0 0 0 0 0 0 0 -8 0 0 0 0 0 0 0 0 0 0 0 0 0 0 0 0 0 0 0 0 0 0 0 0 0 0 0 0 0 0 0 -147 -35 0 -112
0 0 0 0 0 0 0 0 0 0 0 0 0 0 0 0 0 0 0 0 0 0 0 0 0 0 0 0 0 0 0 0 0 0 0 0 0 0 0 0 0 0 -75 -82 -81
-1 0 0 0 0 -3 0 0 0 0 0 0 0 0 0 0 0 0 0 0 0 0 0 0 0 0 0 0 0 0 0 0 0 0 0 0 0 0 0 0 0 -7 -85 -111 -65
-1 0 0 0 0 0 0 0 0 0 0 0 0 0 0 0 0 0 0 0 0 0 0 0 0 0 0 0 0 0 0 0 0 0 0 0 0 0 0 0 0 0 -116 -76 -73
-4 -2 -1 0 0 -1 0 0 0 -1 -9 -2 0 0 0 0 0 0 0 0 0 0 0 0 0 0 0 0 0 0 0 0 0 0 0 0 0 0 0 0 0 0 0 -65 -67
Wind_Speed
27 27 27 27 27 27 27 26 26 27 28 28 27 29 31 31 31 24 27 26 17 15 9 1 5 7 10 16 7 13 14 13 10 9 13 26 19 25 22 24 22 16 20 29 30
28 28 28 28 28 28 28 28 27 27 26 27 28 28 29 31 29 30 25 22 26 11 7 6 4 9 4 15 13 13 12 7 16 16 19 21 20 23 23 22 17 20 22 27 27
29 29 29 29 29 29 29 29 29 28 29 27 26 28 27 28 29 24 21 21 26 10 9 8 10 1 11 5 19 17 18 15 12 15 19 23 20 22 22 20 19 23 25 28 27
31 31 31 31 30 30 29 29 29 29 28 28 28 25 26 24 20 17 19 17 16 10 12 34 35 16 5 25 21 16 23 19 15 14 14 20 22 21 20 15 22 25 27 28 28
34 34 33 32 32 31 31 29 28 28 28 28 27 25 21 12 19 23 19 12 4 7 14 21 38 35 33 21 18 22 26 24 19 19 13 18 19 19 17 19 23 24 26 27 27
35 34 34 34 33 33 32 31 30 29 27 24 24 25 7 18 15 14 19 15 9 1 8 13 23 34 29 32 10 19 19 22 24 20 9 12 19 14 17 22 23 24 26 26 27
37 36 36 36 36 35 35 34 33 31 28 23 9 5 5 22 9 13 9 12 10 5 3 21 22 12 19 34 25 26 22 7 16 29 17 13 20 13 20 23 24 23 24 26 29
39 38 38 38 37 37 36 36 35 33 28 12 4 7 15 5 18 25 25 26 21 10 5 26 9 25 34 30 30 29 23 25 20 23 4 19 13 15 22 22 23 22 22 26 31
40 40 40 39 39 39 40 39 35 29 20 9 11 10 18 12 5 23 9 18 18 11 22 19 16 15 27 17 35 19 33 28 27 2 15 16 13 19 23 21 20 21 22 25 31
41 41 42 42 42 42 43 39 31 19 15 12 15 19 7 5 9 7 12 18 9 20 24 8 17 12 24 15 12 9 18 31 29 8 15 16 10 19 23 21 21 21 23 26 30
43 43 43 44 43 43 39 28 26 25 22 30 18 10 29 17 23 4 8 15 15 12 18 17 14 33 39 30 27 31 35 32 33 20 5 16 15 19 25 25 22 22 23 26 28
45 45 45 46 47 41 25 26 27 35 42 38 27 31 28 22 30 17 9 13 12 15 11 20 31 40 28 34 23 12 33 35 34 32 13 10 15 16 23 24 24 24 24 25 26
46 46 46 47 46 24 33 24 33 38 36 36 17 16 17 14 14 24 3 12 12 15 18 21 10 22 13 29 22 17 34 34 24 30 22 10 12 9 15 20 25 25 25 24 26
47 47 47 48 28 37 30 32 36 33 36 37 23 21 14 10 12 18 8 13 6 17 12 21 21 12 27 25 20 23 42 32 28 28 31 10 16 22 26 32 32 28 28 25 27
48 48 47 43 35 34 31 36 37 22 38 23 20 15 10 9 13 14 14 12 11 8 10 6 17 26 23 27 30 43 42 33 27 30 30 25 13 11 10 37 39 31 31 26 29
49 50 48 37 34 30 35 37 23 27 36 25 18 17 12 14 17 14 15 16 17 13 12 20 14 13 24 20 25 43 36 39 32 29 46 24 23 19 32 40 39 36 33 28 28
50 50 50 38 32 30 34 25 26 33 26 25 24 25 26 17 18 16 19 20 19 18 20 22 31 22 10 18 20 16 16 26 34 38 40 16 18 29 21 30 30 31 28 27 26
52 52 43 38 32 29 26 24 36 29 32 26 31 31 25 21 25 25 20 25 25 23 22 22 25 23 14 21 22 16 20 20 27 35 37 33 38 34 27 16 19 29 26 19 27
51 44 41 33 28 18 23 36 35 31 26 35 34 29 26 23 26 27 30 29 30 28 27 25 36 24 23 21 18 19 26 19 21 33 38 32 33 43 35 16 20 25 22 26 30
47 41 36 26 22 18 30 39 33 26 31 33 34 28 32 31 32 31 30 31 35 32 32 35 36 27 34 26 43 22 19 17 20 28 44 37 32 37 27 16 14 21 23 27 25
39 40 30 25 31 28 41 38 39 42 35 32 39 42 42 39 33 36 35 36 22 32 33 37 39 41 31 36 28 27 23 25 20 22 25 46 56 23 46 34 23 18 27 31 26
37 42 27 38 32 29 40 36 39 42 43 40 41 44 41 37 41 37 38 32 33 35 39 41 37 49 41 36 30 37 34 31 28 23 25 31 49 18 35 39 37 19 23 30 22
41 38 28 25 34 35 35 33 31 36 36 35 38 35 34 36 40 35 35 31 28 28 30 30 41 45 46 48 49 40 38 30 30 28 30 27 40 17 32 37 31 24 21 19 19
33 36 29 24 24 32 35 35 38 33 35 32 37 35 40 41 38 41 42 33 35 31 32 33 42 48 51 40 36 38 38 33 31 34 28 47 27 28 23 26 29 25 18 15 22
25 29 28 33 34 34 32 31 35 35 31 31 33 35 37 44 46 46 42 45 39 32 32 30 45 44 53 48 39 43 39 36 36 33 33 30 30 29 39 31 32 29 22 24 20
24 26 25 28 26 31 27 30 30 31 29 34 36 38 37 42 44 51 49 45 41 38 35 33 42 42 53 46 47 42 44 41 36 35 37 33 33 25 36 37 34 32 29 22 23
14 14 19 25 27 28 25 28 32 27 25 25 32 35 40 42 44 49 49 49 49 47 46 38 38 41 52 43 44 51 48 42 37 34 34 34 29 22 23 22 23 30 28 29 25
Wind_Direction
306 302 300 297 294 292 289 285 283 284 285 285 283 288 287 283 275 293 230 210 234 258 268 102 284 100 102 137 350 39 166 219 229 31 75 121 89 120 98 94 104 122 108 129 131
309 304 302 298 294 291 289 287 285 281 279 282 283 282 286 291 280 253 230 204 191 252 194 190 148 129 67 142 132 115 51 247 144 123 129 126 112 109 99 102 91 82 102 126 130
309 306 302 299 295 292 289 287 284 282 282 279 275 279 279 290 288 263 285 198 180 186 226 192 268 258 143 3 154 143 162 167 131 140 112 115 109 115 105 112 107 112 120 131 134
310 307 304 301 297 293 288 286 283 281 278 276 275 269 273 308 318 300 288 287 142 162 163 188 204 171 220 184 158 148 200 201 84 66 96 127 121 126 123 112 123 123 128 132 138
310 308 305 301 297 294 290 284 279 276 274 271 268 266 317 201 212 243 283 309 46 142 165 182 203 199 211 254 162 172 213 215 196 190 90 139 133 132 133 111 123 123 127 136 140
308 305 302 299 296 294 290 286 280 275 269 260 254 260 28 217 221 184 181 281 302 138 161 175 247 221 241 224 262 238 188 199 207 206 113 144 151 110 125 124 126 130 138 142 145
310 306 303 300 297 294 291 287 281 275 266 251 205 34 200 210 131 348 114 159 282 264 222 172 179 252 256 228 264 270 288 198 201 221 273 116 149 134 128 131 133 133 140 148 153
312 308 303 300 297 294 290 287 283 276 262 216 75 19 210 167 207 215 209 211 237 259 211 244 235 184 214 253 259 263 284 223 195 201 141 146 139 129 138 137 141 138 141 147 160
309 308 305 301 299 297 294 288 282 285 335 20 3 356 227 273 146 199 159 163 161 167 258 259 258 187 229 189 230 273 231 211 218 28 153 160 152 150 147 141 146 148 149 155 161
309 306 305 302 301 300 298 291 296 331 350 356 337 324 232 134 35 53 158 161 134 164 178 229 261 239 255 186 210 217 260 222 211 321 154 164 152 152 156 150 150 155 155 158 166
313 309 307 304 299 299 306 321 316 311 318 292 311 318 251 320 298 38 134 153 156 153 170 175 192 194 201 213 257 254 220 207 217 286 289 162 150 157 162 162 159 157 158 162 164
317 314 312 308 303 297 324 316 320 303 280 272 229 229 225 289 278 285 138 158 163 170 162 176 197 218 253 247 256 230 200 206 240 251 303 202 167 169 168 172 170 165 165 167 165
317 316 315 312 304 322 305 313 316 312 296 291 292 253 272 218 220 196 225 171 175 179 181 187 221 187 235 241 251 215 195 198 200 264 292 231 268 174 172 176 176 175 173 171 170
318 317 318 318 322 313 303 307 308 311 299 288 304 301 284 271 251 199 229 188 246 188 188 194 191 177 190 194 197 202 202 247 266 271 239 261 265 181 188 193 189 183 180 178 177
316 315 316 318 314 311 307 303 304 314 290 306 299 315 305 255 292 223 209 217 210 247 201 222 185 192 191 192 193 218 241 256 264 269 270 267 256 247 223 206 206 191 187 184 181
316 313 313 320 312 306 306 301 304 292 282 296 299 295 294 281 280 277 220 242 263 242 225 204 279 190 195 190 193 226 252 254 263 266 246 211 210 257 205 211 206 197 192 188 185
315 313 308 310 305 312 308 302 283 274 293 289 290 290 281 278 261 275 216 225 229 246 216 256 209 264 237 193 193 198 226 256 258 256 250 235 238 203 197 196 196 193 193 191 189
314 310 311 303 301 300 301 281 271 282 270 294 293 290 279 285 267 257 262 235 239 256 266 252 264 204 217 205 196 212 204 211 252 258 263 264 259 210 206 209 201 195 197 212 191
317 316 311 311 303 288 279 266 272 269 288 285 284 279 279 273 281 269 250 251 242 238 255 265 261 273 249 252 215 211 205 221 241 266 268 268 268 253 259 247 206 201 197 197 193
318 315 308 313 312 286 273 267 269 279 290 289 276 275 271 276 277 279 265 268 255 247 248 260 268 264 256 251 246 228 254 241 247 215 260 266 267 263 260 247 231 210 208 201 200
323 312 313 319 305 277 267 268 272 271 284 281 275 273 272 274 272 273 266 265 276 259 249 253 258 257 263 249 242 240 231 254 246 241 225 262 255 253 245 261 275 227 208 200 201
323 308 319 313 286 282 270 270 273 274 273 275 274 272 271 273 268 267 264 260 273 276 263 257 254 252 254 253 253 248 247 246 247 250 262 222 230 277 254 261 267 273 208 202 202
320 314 326 328 286 283 286 281 281 276 274 272 269 271 272 267 265 266 269 269 282 278 265 264 250 251 254 250 248 250 249 231 249 257 226 221 233 267 262 259 270 280 260 238 226
327 313 314 316 313 299 289 281 279 285 279 277 273 272 270 265 262 260 265 268 276 275 277 269 253 249 248 249 245 246 245 247 236 243 251 222 266 271 270 266 269 268 261 235 220
336 320 323 300 297 301 294 287 283 281 281 281 272 273 270 265 264 260 263 269 266 267 273 270 255 256 257 254 243 243 246 242 240 230 235 239 260 264 262 264 268 270 260 258 215
335 330 329 316 312 304 299 285 289 292 283 277 274 275 273 267 265 262 265 263 258 261 267 267 257 263 256 253 245 244 243 247 246 241 251 260 266 266 264 258 259 267 260 250 239
10 0 338 321 315 308 299 293 286 300 290 286 287 282 273 273 272 264 264 261 255 258 258 259 258 263 253 253 246 245 236 240 249 250 248 249 260 262 262 259 253 261 262 250 248